QPF
0.00 0.00 0.00 0.00 0.00 0.00 0.00 0.00 0.00 0.00 0.00 0.00 0.00 0.00 0.00 0.00 0.00 0.00 0.00 0.00 0.00 0.00 0.00 0.00 0.00 0.00 0.00 0.00 0.00 0.00 0.00 0.00 0.00 0.00 0.00 0.00 0.00 0.00 0.00 0.00 0.00 0.00 0.00 0.00 0.00 0.01 0.01 0.01 0.01
0.00 0.00 0.00 0.00 0.00 0.00 0.00 0.00 0.00 0.00 0.00 0.00 0.01 0.00 0.00 0.00 0.00 0.00 0.00 0.00 0.00 0.00 0.00 0.00 0.00 0.00 0.00 0.00 0.00 0.00 0.00 0.00 0.00 0.00 0.00 0.00 0.00 0.00 0.00 0.00 0.00 0.00 0.00 0.01 0.00 0.01 0.00 0.00 0.00
0.00 0.00 0.00 0.00 0.00 0.00 0.00 0.00 0.00 0.00 0.00 0.01 0.01 0.00 0.00 0.00 0.00 0.00 0.00 0.00 0.00 0.00 0.00 0.00 0.00 0.00 0.00 0.00 0.00 0.00 0.00 0.00 0.00 0.00 0.00 0.00 0.00 0.00 0.00 0.00 0.00 0.00 0.00 0.01 0.01 0.01 0.00 0.01 0.01
0.00 0.00 0.00 0.00 0.00 0.00 0.00 0.00 0.00 0.00 0.01 0.01 0.01 0.00 0.00 0.00 0.00 0.00 0.00 0.00 0.00 0.00 0.00 0.00 0.00 0.00 0.00 0.00 0.00 0.00 0.00 0.00 0.00 0.00 0.00 0.00 0.00 0.00 0.00 0.00 0.00 0.00 0.00 0.00 0.00 0.01 0.00 0.01 0.01
0.00 0.00 0.00 0.00 0.00 0.00 0.00 0.00 0.00 0.00 0.00 0.01 0.01 0.00 0.00 0.00 0.00 0.00 0.00 0.00 0.00 0.00 0.00 0.00 0.00 0.00 0.00 0.00 0.00 0.00 0.00 0.00 0.00 0.00 0.00 0.00 0.00 0.00 0.00 0.00 0.00 0.00 0.00 0.00 0.00 0.00 0.00 0.00 0.00
0.00 0.00 0.00 0.00 0.00 0.00 0.00 0.00 0.00 0.00 0.00 0.00 0.00 0.00 0.01 0.00 0.00 0.00 0.00 0.00 0.00 0.00 0.00 0.00 0.00 0.00 0.00 0.00 0.00 0.00 0.00 0.00 0.00 0.00 0.00 0.00 0.00 0.00 0.00 0.00 0.00 0.00 0.00 0.00 0.00 0.00 0.00 0.00 0.00
0.00 0.00 0.00 0.00 0.00 0.00 0.00 0.00 0.00 0.00 0.00 0.00 0.00 0.00 0.01 0.01 0.00 0.00 0.01 0.01 0.01 0.00 0.00 0.00 0.00 0.01 0.01 0.01 0.01 0.01 0.01 0.01 0.00 0.00 0.00 0.00 0.00 0.00 0.00 0.00 0.00 0.00 0.00 0.00 0.00 0.00 0.00 0.00 0.00
0.00 0.00 0.00 0.00 0.00 0.00 0.00 0.00 0.00 0.00 0.00 0.00 0.00 0.00 0.01 0.01 0.01 0.01 0.01 0.01 0.01 0.01 0.01 0.01 0.01 0.01 0.01 0.01 0.01 0.01 0.01 0.01 0.00 0.00 0.00 0.00 0.00 0.00 0.00 0.00 0.00 0.00 0.00 0.00 0.00 0.00 0.00 0.00 0.00
0.00 0.00 0.00 0.00 0.00 0.00 0.00 0.00 0.00 0.00 0.00 0.00 0.00 0.00 0.01 0.01 0.02 0.02 0.02 0.01 0.01 0.01 0.01 0.02 0.02 0.01 0.01 0.01 0.01 0.01 0.01 0.01 0.01 0.00 0.00 0.00 0.00 0.00 0.00 0.00 0.00 0.00 0.00 0.00 0.00 0.00 0.00 0.00 0.00
0.00 0.00 0.00 0.00 0.00 0.00 0.00 0.00 0.00 0.00 0.00 0.00 0.00 0.00 0.01 0.03 0.04 0.04 0.03 0.02 0.02 0.02 0.01 0.01 0.02 0.02 0.03 0.03 0.03 0.02 0.02 0.02 0.02 0.02 0.02 0.01 0.00 0.00 0.00 0.00 0.00 0.00 0.00 0.00 0.00 0.00 0.00 0.00 0.00
0.00 0.00 0.00 0.00 0.00 0.00 0.00 0.00 0.00 0.00 0.00 0.00 0.00 0.01 0.02 0.03 0.03 0.05 0.05 0.04 0.04 0.05 0.03 0.03 0.03 0.03 0.04 0.06 0.06 0.05 0.04 0.03 0.04 0.04 0.05 0.05 0.02 0.01 0.01 0.00 0.00 0.00 0.00 0.00 0.00 0.00 0.00 0.00 0.00
0.00 0.00 0.00 0.00 0.00 0.00 0.00 0.00 0.00 0.00 0.00 0.00 0.00 0.01 0.01 0.02 0.02 0.03 0.04 0.04 0.04 0.04 0.04 0.04 0.05 0.07 0.08 0.09 0.11 0.10 0.09 0.08 0.06 0.06 0.08 0.10 0.08 0.05 0.02 0.01 0.00 0.01 0.01 0.01 0.01 0.00 0.00 0.00 0.00
0.00 0.00 0.00 0.00 0.00 0.00 0.00 0.00 0.00 0.00 0.00 0.00 0.00 0.01 0.01 0.01 0.01 0.02 0.03 0.03 0.04 0.05 0.06 0.05 0.07 0.09 0.13 0.15 0.16 0.14 0.12 0.10 0.09 0.09 0.10 0.13 0.13 0.10 0.06 0.03 0.03 0.03 0.02 0.01 0.01 0.00 0.00 0.01 0.00
0.00 0.00 0.00 0.00 0.00 0.00 0.00 0.00 0.00 0.00 0.00 0.00 0.01 0.01 0.01 0.01 0.01 0.02 0.03 0.04 0.03 0.03 0.04 0.05 0.07 0.08 0.10 0.13 0.17 0.15 0.12 0.11 0.10 0.11 0.11 0.12 0.12 0.11 0.10 0.08 0.08 0.08 0.06 0.04 0.02 0.01 0.01 0.01 0.01
0.00 0.00 0.00 0.00 0.00 0.00 0.00 0.00 0.00 0.00 0.00 0.00 0.00 0.00 0.01 0.01 0.01 0.02 0.03 0.03 0.03 0.03 0.04 0.05 0.06 0.08 0.09 0.13 0.18 0.18 0.16 0.15 0.13 0.10 0.09 0.09 0.09 0.10 0.11 0.13 0.12 0.12 0.12 0.09 0.06 0.05 0.04 0.03 0.02
0.00 0.00 0.00 0.00 0.00 0.00 0.00 0.00 0.00 0.00 0.00 0.00 0.00 0.00 0.01 0.01 0.01 0.01 0.02 0.02 0.02 0.04 0.05 0.06 0.06 0.07 0.11 0.14 0.18 0.22 0.22 0.21 0.19 0.13 0.10 0.10 0.10 0.12 0.15 0.18 0.16 0.16 0.17 0.17 0.15 0.12 0.10 0.07 0.05
0.00 0.00 0.00 0.00 0.00 0.00 0.00 0.00 0.00 0.00 0.00 0.00 0.00 0.00 0.01 0.01 0.01 0.01 0.02 0.02 0.03 0.04 0.05 0.06 0.06 0.11 0.16 0.19 0.21 0.24 0.27 0.26 0.21 0.16 0.15 0.15 0.17 0.16 0.17 0.17 0.18 0.20 0.23 0.25 0.25 0.22 0.16 0.12 0.09
0.00 0.00 0.00 0.00 0.00 0.00 0.00 0.00 0.00 0.00 0.01 0.01 0.01 0.01 0.01 0.01 0.01 0.01 0.02 0.02 0.04 0.05 0.06 0.08 0.09 0.12 0.20 0.23 0.21 0.23 0.27 0.29 0.27 0.23 0.21 0.22 0.22 0.21 0.22 0.21 0.21 0.22 0.24 0.25 0.27 0.27 0.24 0.19 0.18
0.00 0.00 0.00 0.00 0.00 0.00 0.00 0.00 0.01 0.01 0.01 0.01 0.01 0.01 0.01 0.01 0.01 0.02 0.04 0.07 0.08 0.08 0.09 0.09 0.12 0.17 0.19 0.20 0.22 0.22 0.25 0.28 0.28 0.28 0.28 0.28 0.28 0.28 0.28 0.27 0.27 0.26 0.24 0.26 0.28 0.33 0.33 0.28 0.24
0.00 0.00 0.00 0.00 0.00 0.00 0.00 0.00 0.01 0.01 0.01 0.01 0.01 0.01 0.00 0.01 0.01 0.03 0.08 0.11 0.09 0.09 0.09 0.09 0.11 0.15 0.18 0.21 0.23 0.24 0.26 0.28 0.26 0.27 0.29 0.30 0.32 0.32 0.33 0.31 0.31 0.34 0.33 0.32 0.30 0.31 0.34 0.32 0.27
0.00 0.00 0.00 0.00 0.00 0.00 0.00 0.00 0.01 0.01 0.01 0.01 0.01 0.01 0.01 0.01 0.02 0.03 0.03 0.03 0.04 0.05 0.07 0.08 0.11 0.14 0.15 0.18 0.25 0.28 0.25 0.23 0.22 0.21 0.26 0.27 0.24 0.23 0.26 0.28 0.29 0.32 0.33 0.32 0.31 0.30 0.31 0.30 0.29
0.00 0.00 0.00 0.00 0.00 0.00 0.00 0.00 0.00 0.01 0.01 0.01 0.01 0.01 0.01 0.01 0.01 0.02 0.03 0.03 0.03 0.04 0.05 0.06 0.08 0.13 0.13 0.14 0.19 0.20 0.19 0.18 0.16 0.16 0.17 0.19 0.20 0.21 0.24 0.26 0.27 0.29 0.31 0.32 0.31 0.30 0.29 0.31 0.31
0.00 0.00 0.00 0.00 0.00 0.00 0.00 0.00 0.00 0.00 0.01 0.01 0.01 0.02 0.02 0.01 0.01 0.01 0.01 0.01 0.02 0.02 0.03 0.03 0.03 0.05 0.07 0.09 0.12 0.15 0.16 0.15 0.14 0.15 0.19 0.19 0.18 0.20 0.24 0.22 0.21 0.22 0.23 0.25 0.27 0.27 0.28 0.28 0.28
0.00 0.00 0.00 0.00 0.00 0.00 0.00 0.00 0.00 0.01 0.01 0.01 0.01 0.02 0.02 0.02 0.01 0.01 0.01 0.01 0.01 0.01 0.01 0.02 0.02 0.03 0.04 0.06 0.09 0.09 0.15 0.15 0.12 0.12 0.15 0.15 0.14 0.14 0.18 0.23 0.22 0.20 0.21 0.22 0.21 0.22 0.23 0.26 0.27
0.00 0.00 0.00 0.00 0.00 0.00 0.00 0.00 0.00 0.00 0.01 0.01 0.02 0.02 0.01 0.01 0.01 0.01 0.01 0.01 0.02 0.02 0.02 0.02 0.02 0.03 0.04 0.05 0.06 0.08 0.09 0.11 0.10 0.08 0.07 0.09 0.10 0.12 0.15 0.16 0.19 0.18 0.18 0.22 0.23 0.22 0.21 0.23 0.26
0.00 0.00 0.00 0.00 0.00 0.00 0.00 0.00 0.00 0.00 0.00 0.01 0.01 0.01 0.01 0.01 0.01 0.01 0.01 0.01 0.01 0.02 0.02 0.02 0.02 0.02 0.03 0.04 0.04 0.06 0.06 0.07 0.08 0.08 0.07 0.07 0.09 0.10 0.14 0.11 0.12 0.15 0.15 0.15 0.15 0.16 0.17 0.19 0.20
0.00 0.00 0.00 0.00 0.00 0.00 0.00 0.00 0.00 0.00 0.01 0.01 0.01 0.01 0.01 0.01 0.00 0.01 0.01 0.00 0.01 0.01 0.02 0.02 0.02 0.02 0.03 0.03 0.03 0.04 0.05 0.05 0.06 0.06 0.04 0.05 0.06 0.07 0.09 0.09 0.09 0.10 0.11 0.12 0.11 0.11 0.11 0.13 0.17
0.00 0.01 0.01 0.00 0.00 0.00 0.00 0.00 0.00 0.00 0.00 0.00 0.00 0.01 0.00 0.00 0.01 0.01 0.01 0.00 0.00 0.01 0.02 0.02 0.02 0.03 0.03 0.04 0.04 0.03 0.04 0.04 0.05 0.04 0.03 0.03 0.04 0.06 0.07 0.07 0.09 0.09 0.08 0.08 0.09 0.08 0.07 0.09 0.12
0.01 0.01 0.01 0.01 0.00 0.00 0.00 0.00 0.00 0.00 0.00 0.00 0.00 0.00 0.00 0.00 0.00 0.01 0.01 0.01 0.01 0.01 0.02 0.03 0.03 0.03 0.03 0.04 0.05 0.05 0.04 0.03 0.03 0.03 0.04 0.03 0.04 0.05 0.07 0.07 0.07 0.07 0.07 0.07 0.06 0.06 0.05 0.05 0.07
0.01 0.01 0.01 0.01 0.00 0.00 0.00 0.00 0.00 0.00 0.00 0.00 0.00 0.00 0.00 0.00 0.00 0.01 0.01 0.01 0.01 0.01 0.01 0.02 0.03 0.03 0.03 0.05 0.05 0.04 0.04 0.04 0.03 0.03 0.03 0.05 0.06 0.06 0.06 0.05 0.05 0.05 0.06 0.06 0.05 0.04 0.03 0.03 0.04
MSLP
1009.77 1010.84 1012.15 1013.47 1014.59 1015.30 1015.51 1015.20 1014.47 1013.47 1012.40 1011.43 1010.68 1010.17 1009.89 1009.74 1009.63 1009.48 1009.27 1009.03 1008.82 1008.73 1008.85 1009.19 1009.76 1010.47 1011.21 1011.89 1012.43 1012.80 1013.00 1013.10 1013.18 1013.31 1013.55 1013.88 1014.30 1014.74 1015.15 1015.48 1015.71 1015.86 1015.96 1016.06 1016.18 1016.34 1016.54 1016.76 1016.96
1010.22 1011.48 1012.88 1014.21 1015.22 1015.74 1015.69 1015.10 1014.07 1012.80 1011.51 1010.38 1009.52 1008.96 1008.68 1008.58 1008.56 1008.53 1008.45 1008.36 1008.29 1008.35 1008.59 1009.05 1009.70 1010.47 1011.27 1012.00 1012.58 1013.00 1013.26 1013.43 1013.57 1013.75 1014.00 1014.34 1014.72 1015.09 1015.42 1015.67 1015.83 1015.93 1016.00 1016.09 1016.22 1016.41 1016.64 1016.88 1017.10
1010.86 1012.22 1013.63 1014.86 1015.69 1015.97 1015.65 1014.78 1013.50 1012.03 1010.59 1009.37 1008.46 1007.91 1007.67 1007.64 1007.70 1007.79 1007.84 1007.88 1007.96 1008.15 1008.50 1009.04 1009.75 1010.56 1011.38 1012.13 1012.74 1013.19 1013.50 1013.72 1013.91 1014.13 1014.40 1014.72 1015.06 1015.38 1015.64 1015.81 1015.91 1015.97 1016.03 1016.12 1016.28 1016.51 1016.78 1017.05 1017.30
1011.65 1013.01 1014.34 1015.39 1015.99 1016.00 1015.42 1014.32 1012.87 1011.29 1009.80 1008.56 1007.68 1007.18 1007.00 1007.05 1007.20 1007.39 1007.55 1007.71 1007.90 1008.19 1008.62 1009.22 1009.96 1010.77 1011.57 1012.30 1012.89 1013.34 1013.67 1013.92 1014.15 1014.40 1014.69 1015.01 1015.33 1015.61 1015.81 1015.94 1016.01 1016.05 1016.10 1016.22 1016.41 1016.68 1016.98 1017.29 1017.56
1012.48 1013.78 1014.94 1015.77 1016.10 1015.87 1015.07 1013.82 1012.29 1010.70 1009.25 1008.09 1007.31 1006.90 1006.80 1006.92 1007.15 1007.40 1007.64 1007.87 1008.14 1008.50 1008.97 1009.59 1010.31 1011.07 1011.82 1012.48 1013.03 1013.44 1013.76 1014.02 1014.28 1014.56 1014.87 1015.20 1015.52 1015.78 1015.97 1016.08 1016.14 1016.18 1016.25 1016.39 1016.62 1016.91 1017.24 1017.57 1017.86
1013.25 1014.40 1015.35 1015.93 1016.01 1015.57 1014.63 1013.33 1011.83 1010.34 1009.03 1008.02 1007.38 1007.09 1007.08 1007.26 1007.53 1007.81 1008.08 1008.35 1008.65 1009.03 1009.51 1010.10 1010.76 1011.45 1012.11 1012.68 1013.14 1013.50 1013.78 1014.03 1014.30 1014.60 1014.94 1015.30 1015.64 1015.92 1016.12 1016.24 1016.31 1016.37 1016.46 1016.63 1016.87 1017.18 1017.52 1017.86 1018.14
1013.82 1014.78 1015.49 1015.82 1015.70 1015.12 1014.14 1012.89 1011.53 1010.23 1009.14 1008.35 1007.88 1007.72 1007.78 1007.99 1008.26 1008.54 1008.80 1009.05 1009.35 1009.71 1010.16 1010.69 1011.28 1011.87 1012.41 1012.87 1013.23 1013.51 1013.75 1013.98 1014.25 1014.57 1014.95 1015.34 1015.71 1016.02 1016.25 1016.40 1016.49 1016.58 1016.69 1016.87 1017.12 1017.42 1017.76 1018.08 1018.36
1014.10 1014.85 1015.33 1015.44 1015.17 1014.53 1013.60 1012.50 1011.36 1010.33 1009.51 1008.95 1008.67 1008.62 1008.74 1008.95 1009.18 1009.41 1009.62 1009.83 1010.09 1010.41 1010.81 1011.28 1011.78 1012.27 1012.70 1013.05 1013.32 1013.52 1013.70 1013.90 1014.17 1014.51 1014.90 1015.32 1015.73 1016.08 1016.34 1016.53 1016.65 1016.76 1016.89 1017.07 1017.31 1017.59 1017.90 1018.20 1018.45
1014.08 1014.61 1014.88 1014.83 1014.47 1013.84 1013.04 1012.15 1011.30 1010.57 1010.03 1009.72 1009.60 1009.64 1009.78 1009.95 1010.12 1010.27 1010.41 1010.56 1010.77 1011.04 1011.40 1011.80 1012.23 1012.63 1012.97 1013.22 1013.40 1013.53 1013.66 1013.83 1014.08 1014.42 1014.83 1015.28 1015.71 1016.08 1016.38 1016.59 1016.75 1016.87 1017.01 1017.18 1017.40 1017.67 1017.94 1018.20 1018.42
1013.81 1014.14 1014.22 1014.06 1013.68 1013.13 1012.50 1011.87 1011.32 1010.89 1010.63 1010.51 1010.53 1010.62 1010.74 1010.85 1010.94 1011.00 1011.05 1011.15 1011.31 1011.54 1011.86 1012.22 1012.60 1012.93 1013.20 1013.38 1013.49 1013.56 1013.64 1013.79 1014.02 1014.34 1014.75 1015.19 1015.63 1016.02 1016.34 1016.57 1016.75 1016.89 1017.04 1017.21 1017.41 1017.65 1017.90 1018.13 1018.32
1013.41 1013.56 1013.51 1013.28 1012.92 1012.49 1012.07 1011.70 1011.42 1011.26 1011.22 1011.26 1011.35 1011.45 1011.53 1011.56 1011.55 1011.52 1011.51 1011.55 1011.68 1011.89 1012.19 1012.53 1012.87 1013.17 1013.39 1013.52 1013.58 1013.62 1013.66 1013.77 1013.96 1014.26 1014.64 1015.06 1015.49 1015.88 1016.20 1016.45 1016.65 1016.81 1016.98 1017.16 1017.37 1017.60 1017.83 1018.04 1018.21
1013.03 1013.04 1012.89 1012.64 1012.34 1012.05 1011.82 1011.68 1011.64 1011.69 1011.80 1011.93 1012.05 1012.12 1012.12 1012.07 1011.97 1011.86 1011.80 1011.81 1011.92 1012.13 1012.42 1012.75 1013.08 1013.35 1013.54 1013.65 1013.68 1013.68 1013.70 1013.76 1013.92 1014.17 1014.51 1014.89 1015.29 1015.66 1015.99 1016.25 1016.47 1016.67 1016.86 1017.08 1017.31 1017.56 1017.80 1018.02 1018.19
1012.80 1012.71 1012.51 1012.26 1012.04 1011.89 1011.84 1011.88 1012.02 1012.20 1012.40 1012.56 1012.65 1012.66 1012.58 1012.44 1012.26 1012.10 1012.00 1012.00 1012.10 1012.31 1012.60 1012.93 1013.24 1013.50 1013.68 1013.76 1013.78 1013.76 1013.74 1013.77 1013.88 1014.08 1014.36 1014.70 1015.05 1015.40 1015.72 1016.00 1016.25 1016.48 1016.72 1016.99 1017.27 1017.56 1017.85 1018.10 1018.29
1012.80 1012.65 1012.44 1012.24 1012.11 1012.08 1012.17 1012.35 1012.59 1012.84 1013.05 1013.19 1013.23 1013.16 1013.00 1012.78 1012.56 1012.36 1012.24 1012.23 1012.33 1012.53 1012.81 1013.11 1013.40 1013.64 1013.80 1013.87 1013.87 1013.83 1013.79 1013.78 1013.85 1014.00 1014.22 1014.50 1014.81 1015.12 1015.43 1015.72 1016.00 1016.28 1016.58 1016.90 1017.25 1017.61 1017.96 1018.27 1018.51
1013.02 1012.85 1012.66 1012.53 1012.50 1012.59 1012.78 1013.05 1013.34 1013.61 1013.79 1013.87 1013.84 1013.69 1013.47 1013.21 1012.96 1012.75 1012.63 1012.60 1012.69 1012.86 1013.10 1013.36 1013.60 1013.80 1013.92 1013.96 1013.95 1013.89 1013.84 1013.81 1013.84 1013.94 1014.11 1014.33 1014.60 1014.88 1015.16 1015.45 1015.75 1016.07 1016.42 1016.80 1017.22 1017.65 1018.08 1018.47 1018.79
1013.37 1013.22 1013.09 1013.04 1013.11 1013.30 1013.58 1013.91 1014.21 1014.46 1014.59 1014.61 1014.51 1014.31 1014.06 1013.78 1013.53 1013.33 1013.21 1013.17 1013.22 1013.34 1013.51 1013.69 1013.85 1013.98 1014.05 1014.07 1014.03 1013.98 1013.92 1013.88 1013.89 1013.95 1014.08 1014.25 1014.46 1014.70 1014.96 1015.23 1015.53 1015.85 1016.23 1016.65 1017.12 1017.62 1018.12 1018.60 1019.02
1013.72 1013.62 1013.57 1013.63 1013.81 1014.10 1014.44 1014.80 1015.10 1015.30 1015.39 1015.35 1015.21 1014.99 1014.74 1014.49 1014.27 1014.10 1013.99 1013.94 1013.93 1013.97 1014.03 1014.10 1014.16 1014.20 1014.20 1014.18 1014.14 1014.08 1014.03 1014.00 1014.01 1014.06 1014.15 1014.28 1014.44 1014.63 1014.84 1015.07 1015.33 1015.63 1015.99 1016.41 1016.89 1017.43 1017.99 1018.55 1019.08
1013.96 1013.93 1013.98 1014.16 1014.45 1014.82 1015.22 1015.59 1015.87 1016.03 1016.07 1016.00 1015.85 1015.66 1015.46 1015.27 1015.12 1015.00 1014.91 1014.83 1014.77 1014.70 1014.64 1014.57 1014.50 1014.43 1014.37 1014.31 1014.26 1014.22 1014.20 1014.20 1014.22 1014.27 1014.34 1014.44 1014.55 1014.68 1014.81 1014.97 1015.16 1015.39 1015.68 1016.05 1016.50 1017.03 1017.63 1018.25 1018.88
1014.00 1014.06 1014.23 1014.52 1014.92 1015.37 1015.81 1016.18 1016.43 1016.55 1016.56 1016.48 1016.35 1016.22 1016.10 1016.02 1015.97 1015.92 1015.87 1015.78 1015.65 1015.48 1015.27 1015.06 1014.85 1014.68 1014.54 1014.45 1014.40 1014.40 1014.41 1014.46 1014.51 1014.58 1014.64 1014.71 1014.77 1014.83 1014.88 1014.94 1015.02 1015.14 1015.32 1015.59 1015.96 1016.44 1017.02 1017.68 1018.38
1013.84 1014.00 1014.29 1014.71 1015.21 1015.72 1016.17 1016.52 1016.73 1016.81 1016.78 1016.70 1016.62 1016.58 1016.59 1016.64 1016.71 1016.77 1016.76 1016.67 1016.48 1016.21 1015.88 1015.53 1015.19 1014.92 1014.72 1014.60 1014.56 1014.59 1014.66 1014.75 1014.85 1014.94 1015.01 1015.06 1015.08 1015.06 1015.03 1014.98 1014.93 1014.91 1014.96 1015.09 1015.33 1015.72 1016.24 1016.89 1017.64
1013.55 1013.82 1014.24 1014.78 1015.35 1015.90 1016.34 1016.64 1016.78 1016.80 1016.73 1016.66 1016.64 1016.70 1016.84 1017.05 1017.27 1017.44 1017.51 1017.44 1017.21 1016.86 1016.42 1015.94 1015.50 1015.13 1014.87 1014.74 1014.72 1014.78 1014.91 1015.06 1015.20 1015.32 1015.41 1015.44 1015.42 1015.34 1015.22 1015.07 1014.90 1014.74 1014.63 1014.61 1014.71 1014.97 1015.39 1015.99 1016.74
1013.25 1013.65 1014.20 1014.83 1015.46 1016.01 1016.40 1016.62 1016.67 1016.60 1016.48 1016.41 1016.44 1016.59 1016.88 1017.24 1017.62 1017.92 1018.08 1018.04 1017.81 1017.40 1016.88 1016.31 1015.77 1015.33 1015.03 1014.88 1014.86 1014.96 1015.13 1015.33 1015.52 1015.67 1015.76 1015.79 1015.74 1015.63 1015.44 1015.21 1014.94 1014.66 1014.42 1014.26 1014.21 1014.32 1014.63 1015.14 1015.83
1013.09 1013.62 1014.28 1014.99 1015.65 1016.16 1016.48 1016.58 1016.51 1016.33 1016.14 1016.04 1016.10 1016.35 1016.76 1017.28 1017.80 1018.23 1018.48 1018.50 1018.28 1017.85 1017.27 1016.64 1016.03 1015.54 1015.19 1015.02 1015.01 1015.13 1015.33 1015.55 1015.77 1015.94 1016.04 1016.07 1016.02 1015.88 1015.67 1015.38 1015.05 1014.70 1014.37 1014.09 1013.92 1013.90 1014.07 1014.46 1015.06
1013.16 1013.82 1014.58 1015.34 1015.99 1016.44 1016.64 1016.61 1016.39 1016.08 1015.81 1015.68 1015.76 1016.08 1016.60 1017.24 1017.90 1018.45 1018.80 1018.88 1018.68 1018.25 1017.64 1016.97 1016.32 1015.78 1015.40 1015.21 1015.20 1015.31 1015.51 1015.75 1015.97 1016.15 1016.26 1016.28 1016.23 1016.09 1015.88 1015.59 1015.25 1014.87 1014.49 1014.15 1013.89 1013.76 1013.82 1014.08 1014.56
1013.48 1014.25 1015.08 1015.86 1016.47 1016.84 1016.91 1016.73 1016.37 1015.94 1015.59 1015.43 1015.52 1015.89 1016.49 1017.24 1018.00 1018.65 1019.08 1019.23 1019.07 1018.65 1018.04 1017.34 1016.67 1016.10 1015.70 1015.48 1015.44 1015.54 1015.73 1015.95 1016.16 1016.33 1016.43 1016.45 1016.41 1016.28 1016.09 1015.83 1015.52 1015.16 1014.79 1014.43 1014.13 1013.94 1013.90 1014.04 1014.39
1014.01 1014.85 1015.72 1016.48 1017.02 1017.28 1017.23 1016.92 1016.43 1015.92 1015.51 1015.32 1015.43 1015.85 1016.52 1017.35 1018.19 1018.92 1019.41 1019.60 1019.48 1019.08 1018.48 1017.79 1017.11 1016.53 1016.11 1015.87 1015.80 1015.87 1016.03 1016.22 1016.40 1016.54 1016.62 1016.64 1016.59 1016.49 1016.33 1016.12 1015.85 1015.55 1015.23 1014.91 1014.62 1014.40 1014.30 1014.36 1014.58
1014.62 1015.49 1016.34 1017.04 1017.49 1017.64 1017.48 1017.07 1016.51 1015.95 1015.52 1015.36 1015.51 1015.98 1016.71 1017.59 1018.49 1019.27 1019.80 1020.03 1019.94 1019.57 1018.99 1018.32 1017.65 1017.07 1016.65 1016.39 1016.30 1016.34 1016.45 1016.60 1016.74 1016.84 1016.89 1016.89 1016.84 1016.75 1016.62 1016.46 1016.26 1016.03 1015.78 1015.52 1015.28 1015.08 1014.96 1014.96 1015.10
1015.19 1016.01 1016.78 1017.38 1017.72 1017.77 1017.53 1017.06 1016.49 1015.95 1015.58 1015.48 1015.70 1016.24 1017.03 1017.96 1018.89 1019.68 1020.24 1020.49 1020.42 1020.08 1019.54 1018.91 1018.27 1017.72 1017.31 1017.06 1016.95 1016.96 1017.04 1017.15 1017.24 1017.30 1017.31 1017.28 1017.21 1017.12 1017.01 1016.89 1016.74 1016.58 1016.40 1016.22 1016.04 1015.89 1015.80 1015.78 1015.87
1015.56 1016.26 1016.90 1017.36 1017.58 1017.53 1017.24 1016.79 1016.27 1015.83 1015.57 1015.60 1015.93 1016.56 1017.41 1018.38 1019.32 1020.12 1020.67 1020.93 1020.89 1020.59 1020.10 1019.52 1018.94 1018.44 1018.06 1017.83 1017.73 1017.72 1017.78 1017.85 1017.91 1017.93 1017.91 1017.84 1017.76 1017.65 1017.54 1017.43 1017.31 1017.20 1017.08 1016.97 1016.86 1016.77 1016.72 1016.73 1016.81
1015.67 1016.19 1016.64 1016.93 1017.02 1016.89 1016.60 1016.20 1015.81 1015.52 1015.45 1015.64 1016.12 1016.86 1017.78 1018.77 1019.71 1020.50 1021.04 1021.30 1021.28 1021.03 1020.60 1020.10 1019.60 1019.17 1018.85 1018.66 1018.58 1018.59 1018.63 1018.69 1018.72 1018.72 1018.67 1018.58 1018.46 1018.34 1018.21 1018.09 1017.98 1017.89 1017.81 1017.74 1017.69 1017.67 1017.68 1017.72 1017.83
Thickness
5767 5768 5767 5756 5732 5711 5712 5728 5742 5753 5765 5781 5787 5786 5781 5777 5772 5774 5805 5813 5810 5803 5797 5791 5787 5783 5780 5778 5776 5775 5774 5773 5771 5770 5768 5766 5765 5763 5762 5761 5760 5759 5758 5756 5755 5753 5752 5750 5749
5762 5763 5754 5737 5712 5699 5708 5729 5740 5755 5771 5781 5787 5788 5784 5787 5798 5799 5803 5808 5808 5802 5796 5790 5785 5781 5778 5775 5772 5771 5769 5768 5767 5765 5764 5763 5761 5760 5759 5758 5757 5756 5755 5753 5752 5751 5749 5748 5746
5758 5755 5736 5717 5703 5700 5716 5736 5745 5760 5773 5777 5780 5787 5786 5788 5798 5800 5806 5807 5804 5798 5793 5788 5783 5779 5776 5772 5769 5767 5765 5763 5762 5761 5759 5758 5757 5756 5755 5754 5753 5752 5751 5750 5749 5748 5746 5745 5744
5749 5737 5722 5707 5706 5712 5722 5738 5748 5754 5768 5779 5781 5779 5789 5799 5801 5804 5806 5804 5799 5794 5790 5785 5780 5776 5773 5769 5766 5763 5762 5760 5758 5757 5755 5754 5754 5753 5752 5751 5750 5749 5748 5747 5746 5745 5743 5742 5741
5737 5722 5706 5695 5704 5717 5729 5742 5750 5752 5761 5775 5778 5774 5780 5793 5801 5802 5800 5797 5793 5788 5785 5781 5777 5773 5769 5766 5763 5760 5758 5756 5754 5753 5752 5751 5750 5749 5748 5747 5746 5746 5745 5744 5743 5741 5740 5739 5738
5717 5707 5689 5688 5702 5718 5731 5744 5748 5753 5759 5770 5774 5770 5774 5787 5791 5792 5792 5789 5786 5783 5779 5776 5772 5769 5766 5763 5760 5757 5755 5753 5751 5749 5748 5747 5746 5746 5745 5744 5743 5742 5742 5741 5739 5738 5737 5736 5735
5707 5696 5689 5696 5701 5713 5734 5746 5747 5751 5755 5764 5773 5765 5769 5778 5784 5785 5784 5781 5778 5776 5773 5771 5768 5764 5762 5759 5757 5754 5752 5750 5748 5746 5745 5743 5742 5742 5741 5740 5739 5739 5738 5737 5736 5735 5734 5733 5733
5711 5696 5693 5692 5700 5712 5733 5741 5747 5750 5753 5767 5771 5760 5761 5770 5777 5778 5775 5773 5770 5768 5767 5765 5763 5761 5758 5756 5754 5751 5749 5747 5745 5743 5742 5740 5739 5738 5738 5737 5736 5735 5734 5734 5733 5732 5732 5731 5730
5711 5685 5681 5693 5702 5714 5729 5732 5743 5752 5753 5758 5762 5764 5767 5771 5771 5767 5763 5761 5760 5760 5759 5759 5757 5755 5753 5751 5749 5747 5745 5743 5742 5740 5739 5737 5736 5735 5735 5734 5733 5732 5732 5731 5730 5729 5729 5728 5728
5698 5679 5690 5703 5711 5719 5724 5728 5734 5740 5739 5743 5750 5756 5762 5763 5761 5757 5754 5752 5752 5752 5752 5753 5752 5750 5748 5747 5745 5743 5742 5740 5738 5737 5736 5735 5733 5732 5731 5731 5730 5729 5729 5728 5728 5727 5726 5726 5725
5698 5689 5699 5709 5716 5721 5722 5727 5734 5733 5728 5735 5739 5744 5750 5752 5751 5750 5748 5748 5747 5747 5747 5747 5747 5746 5744 5742 5741 5739 5738 5736 5735 5734 5732 5731 5729 5728 5728 5727 5726 5726 5726 5725 5725 5724 5723 5723 5723
5695 5699 5705 5713 5721 5721 5722 5726 5726 5728 5729 5738 5741 5743 5744 5743 5742 5743 5743 5742 5742 5742 5742 5743 5742 5740 5738 5737 5736 5736 5735 5733 5731 5730 5729 5727 5725 5724 5724 5724 5723 5723 5722 5722 5722 5721 5720 5720 5720
5695 5701 5710 5716 5717 5719 5721 5720 5721 5722 5730 5735 5736 5735 5735 5735 5736 5737 5738 5738 5737 5736 5736 5737 5737 5735 5733 5732 5731 5731 5731 5730 5728 5727 5726 5724 5722 5721 5721 5720 5719 5719 5718 5718 5717 5717 5717 5717 5717
5701 5704 5710 5714 5717 5720 5717 5716 5716 5717 5725 5725 5725 5723 5724 5725 5727 5728 5729 5729 5730 5731 5731 5732 5731 5731 5729 5728 5728 5727 5725 5724 5723 5722 5722 5722 5720 5719 5717 5717 5717 5716 5715 5714 5714 5714 5713 5714 5714
5703 5701 5705 5712 5715 5717 5716 5706 5708 5714 5717 5714 5713 5714 5715 5715 5717 5717 5719 5721 5723 5724 5725 5725 5726 5725 5724 5723 5723 5722 5720 5719 5717 5716 5717 5718 5717 5716 5714 5714 5714 5714 5713 5711 5710 5710 5709 5709 5710
5696 5689 5686 5701 5709 5713 5707 5690 5702 5708 5708 5704 5704 5705 5705 5705 5706 5708 5711 5713 5715 5716 5717 5718 5719 5718 5718 5718 5717 5716 5714 5713 5712 5711 5712 5713 5713 5712 5711 5712 5712 5711 5709 5708 5707 5706 5705 5705 5704
5673 5671 5678 5690 5702 5705 5698 5687 5695 5700 5699 5696 5696 5697 5697 5696 5696 5698 5701 5703 5706 5708 5709 5709 5710 5710 5710 5710 5710 5709 5708 5707 5707 5707 5708 5708 5709 5708 5708 5709 5708 5707 5706 5705 5704 5702 5701 5699 5698
5668 5671 5675 5678 5692 5693 5685 5682 5688 5691 5691 5688 5688 5688 5688 5686 5685 5688 5691 5694 5696 5698 5700 5700 5702 5702 5703 5702 5702 5701 5701 5701 5702 5702 5703 5704 5704 5704 5704 5705 5704 5704 5703 5701 5701 5698 5697 5696 5693
5677 5674 5670 5679 5690 5683 5677 5676 5679 5682 5682 5681 5680 5679 5678 5677 5678 5679 5681 5683 5684 5687 5688 5689 5691 5692 5693 5693 5693 5693 5692 5693 5694 5695 5696 5697 5698 5699 5699 5699 5699 5700 5699 5699 5698 5695 5692 5689 5688
5674 5671 5671 5678 5686 5680 5671 5670 5673 5675 5674 5674 5672 5670 5670 5669 5668 5668 5669 5670 5672 5675 5677 5679 5680 5683 5684 5685 5686 5686 5686 5686 5686 5686 5687 5689 5690 5690 5691 5694 5694 5695 5695 5694 5693 5692 5688 5685 5685
5674 5672 5675 5675 5677 5675 5669 5661 5664 5668 5668 5667 5665 5663 5662 5660 5657 5657 5658 5659 5660 5662 5664 5668 5670 5674 5676 5678 5680 5680 5679 5679 5678 5678 5679 5680 5681 5683 5684 5687 5688 5689 5689 5689 5690 5689 5686 5683 5681
5673 5685 5683 5679 5665 5655 5661 5645 5657 5659 5659 5658 5656 5654 5651 5650 5648 5647 5647 5648 5649 5651 5654 5657 5660 5663 5667 5670 5672 5672 5671 5671 5671 5671 5671 5671 5672 5674 5676 5679 5680 5681 5682 5684 5685 5685 5684 5681 5678
5685 5688 5682 5675 5662 5651 5651 5642 5646 5653 5652 5652 5650 5647 5643 5640 5638 5637 5637 5637 5639 5642 5644 5648 5652 5655 5658 5662 5663 5663 5663 5663 5662 5662 5663 5663 5663 5665 5668 5671 5672 5673 5675 5676 5678 5679 5679 5678 5677
5689 5678 5668 5655 5648 5640 5648 5640 5641 5646 5651 5650 5646 5641 5636 5632 5630 5628 5628 5629 5631 5633 5636 5640 5643 5646 5648 5651 5653 5654 5654 5654 5654 5654 5655 5655 5655 5657 5659 5663 5664 5665 5667 5669 5671 5672 5673 5673 5673
5680 5660 5641 5638 5628 5633 5646 5641 5642 5653 5654 5650 5644 5636 5630 5625 5621 5619 5619 5620 5622 5624 5627 5631 5633 5635 5637 5640 5642 5643 5644 5645 5645 5646 5646 5647 5648 5649 5651 5653 5654 5656 5658 5660 5663 5664 5664 5664 5665
5673 5663 5639 5630 5626 5630 5640 5637 5646 5652 5649 5646 5640 5631 5624 5618 5614 5612 5611 5611 5612 5615 5618 5621 5623 5624 5627 5629 5631 5633 5634 5635 5635 5636 5637 5638 5639 5640 5642 5643 5645 5647 5648 5651 5654 5654 5654 5655 5656
5669 5657 5656 5637 5632 5626 5630 5641 5648 5646 5642 5637 5631 5625 5618 5612 5608 5605 5604 5603 5604 5606 5608 5611 5613 5614 5615 5618 5621 5622 5623 5624 5625 5626 5627 5628 5629 5631 5633 5635 5637 5637 5639 5642 5643 5642 5643 5645 5645
5672 5657 5643 5634 5625 5621 5631 5636 5639 5645 5641 5635 5628 5621 5614 5607 5603 5600 5597 5596 5597 5598 5600 5602 5604 5604 5605 5607 5610 5611 5612 5612 5614 5616 5616 5618 5619 5622 5624 5625 5626 5627 5628 5630 5631 5631 5632 5634 5633
5663 5655 5642 5630 5628 5620 5618 5632 5653 5651 5646 5637 5628 5619 5611 5604 5599 5594 5591 5590 5590 5590 5592 5593 5594 5595 5595 5596 5598 5600 5600 5601 5603 5605 5605 5607 5609 5611 5612 5613 5615 5616 5617 5618 5620 5620 5621 5622 5622
5668 5659 5644 5636 5631 5622 5617 5630 5653 5650 5644 5636 5626 5616 5607 5600 5593 5589 5586 5584 5583 5583 5584 5584 5584 5585 5585 5586 5587 5588 5589 5591 5592 5593 5594 5595 5598 5599 5600 5602 5603 5604 5605 5606 5608 5608 5609 5610 5610